Memphis, TN

10:16 AM CDT on March 30, 2017 (GMT -0500)
Memphis International

Weather History for KMEM - July, 2014

Change the Weather History Date:

Saturday, July 5, 2014

  Actual Average Record
Temperature  
Mean Temperature 75 °F 82 °F  
Max Temperature 86 °F 92 °F 104 °F (1954)
Min Temperature 64 °F 74 °F 60 °F (1968)
Degree Days  
Heating Degree Days 0 0  
Month to date heating degree days 0 0  
Since 1 June heating degree days 0 0  
Since 1 July heating degree days 0 0  
Cooling Degree Days 10 18  
Month to date cooling degree days 60 86  
Year to date cooling degree days 808 845  
Since 1 June cooling degree days 497 524  
Growing Degree Days 25 (Base 50)    
Moisture  
Dew Point 58 °F    
Average Humidity 58    
Maximum Humidity 78    
Minimum Humidity 37    
Precipitation  
Precipitation 0.00 in 0.14 in 2.73 in (1995)
Month to date precipitation 0.10 0.67  
Year to date precipitation 39.46 28.58  
Snow  
Snow 0.00 in 0.00 in - ()
Month to date snowfall 0.0 0.0  
Since 1 June snowfall 0.0 0.0  
Since 1 July snowfall 0.0 0.0  
Snow Depth 0.00 in    
Sea Level Pressure  
Sea Level Pressure 30.18 in    
Wind  
Wind Speed 3 mph (NE)    
Max Wind Speed 10 mph    
Max Gust Speed 15 mph    
Visibility 10 miles    
Events      
T = Trace of Precipitation, MM = Missing Value Source: NWS Daily Summary

Daily Weather History Graph

Daily Weather History Graph

Search for Another Location

Airport or City:

Trip Planner

Search our weather history database for the weather conditions in past years. The results will help you decide how hot, cold, wet, or windy it might be!

Date:

Astronomy

Jul. 05, 2014 Rise Set
Actual Time 5:51 AM CDT 8:17 PM CDT
Civil Twilight 5:21 AM CDT 8:46 PM CDT
Nautical Twilight 4:45 AM CDT 9:23 PM CDT
Astronomical Twilight 4:05 AM CDT 10:03 PM CDT
Moon 1:27 PM CDT (7/5) 12:27 AM CDT (7/5)
Length of Visible Light 15h 25m
Length of Day
14h 26m
First Quarter, 52% of the Moon is Illuminated
Jul 5
First Quarter
Jul 12
Full
Jul 18
Last Quarter
Jul 26
New
Aug 3
First Quarter

Hourly Weather History & Observations

Time (CDT) Temp. Heat Index Dew Point Humidity Pressure Visibility Wind Dir Wind Speed Gust Speed Precip Events Conditions
12:54 AM 71.1 °F - 59.0 °F 66% 30.22 in 8.0 mi ENE 4.6 mph - N/A   Clear
1:54 AM 70.0 °F - 59.0 °F 68% 30.22 in 8.0 mi Calm Calm - N/A   Clear
2:54 AM 66.9 °F - 59.0 °F 76% 30.21 in 8.0 mi Calm Calm - N/A   Clear
3:54 AM 64.0 °F - 57.9 °F 80% 30.21 in 9.0 mi Calm Calm - N/A   Clear
4:54 AM 66.0 °F - 59.0 °F 78% 30.22 in 9.0 mi North 4.6 mph - N/A   Clear
5:54 AM 64.0 °F - 57.9 °F 80% 30.22 in 9.0 mi Calm Calm - N/A   Partly Cloudy
6:38 AM 66.2 °F - 59.0 °F 78% 30.23 in 9.0 mi NE 3.5 mph - N/A   Scattered Clouds
6:54 AM 68.0 °F - 59.0 °F 73% 30.22 in 9.0 mi NE 3.5 mph - N/A   Scattered Clouds
7:54 AM 71.1 °F - 59.0 °F 66% 30.23 in 10.0 mi ENE 4.6 mph - N/A   Partly Cloudy
8:54 AM 75.0 °F - 57.9 °F 55% 30.22 in 10.0 mi East 3.5 mph - N/A   Partly Cloudy
9:54 AM 78.1 °F - 55.9 °F 46% 30.23 in 10.0 mi Calm Calm - N/A   Partly Cloudy
10:54 AM 79.0 °F - 54.0 °F 42% 30.22 in 10.0 mi Calm Calm - N/A   Scattered Clouds
11:54 AM 81.0 °F 80.8 °F 55.9 °F 42% 30.21 in 10.0 mi Calm Calm - N/A   Scattered Clouds
12:54 PM 82.0 °F 81.4 °F 55.0 °F 39% 30.19 in 10.0 mi Calm Calm - N/A   Scattered Clouds
1:54 PM 84.9 °F 83.9 °F 57.0 °F 38% 30.19 in 10.0 mi SSE 8.1 mph - N/A   Scattered Clouds
2:54 PM 84.2 °F 83.5 °F 57.2 °F 40% 30.18 in 10.0 mi Variable 5.8 mph - N/A   Scattered Clouds
3:54 PM 84.9 °F 83.7 °F 55.9 °F 37% 30.16 in 10.0 mi Variable 3.5 mph - N/A   Scattered Clouds
4:54 PM 84.9 °F 84.4 °F 59.0 °F 41% 30.14 in 10.0 mi NNW 9.2 mph - N/A   Scattered Clouds
5:54 PM 84.9 °F 84.4 °F 59.0 °F 41% 30.12 in 10.0 mi NNW 5.8 mph - N/A   Scattered Clouds
6:54 PM 82.9 °F 82.6 °F 57.9 °F 42% 30.10 in 10.0 mi North 6.9 mph - N/A   Scattered Clouds
7:54 PM 81.0 °F 81.0 °F 57.0 °F 44% 30.10 in 10.0 mi South 4.6 mph - N/A   Scattered Clouds
8:54 PM 75.0 °F - 59.0 °F 57% 30.09 in 10.0 mi South 6.9 mph - N/A   Partly Cloudy
9:54 PM 75.0 °F - 57.9 °F 55% 30.12 in 10.0 mi Calm Calm - N/A   Partly Cloudy
10:54 PM 73.0 °F - 61.0 °F 66% 30.12 in 10.0 mi Calm Calm - N/A   Partly Cloudy
11:54 PM 71.1 °F - 61.0 °F 70% 30.12 in 10.0 mi Calm Calm - N/A   Partly Cloudy